AAL6299 KMSY-KDFW

Flight info

Callsign AAL6299
Flight time 1h 23m
Altitude 36000
Route AEX PNUTS WHINY4
Aircraft B738/M-SDE2E3FGHIRWXY/LB1

Departure

Time 2026-04-30 19:49
Airport Louis Armstrong New Orleans International Airport (KMSY)

Arrival

Time 2026-04-30 21:12
Airport Dallas Fort Worth International Airport (KDFW)
Time Latitude Longitude Altitude Speed Heading
2026-04-30 19:17 29.99307 -90.25758 10 ft 0 kts 49°
2026-04-30 19:35 29.99305 -90.25758 9 ft 1 kts 49°
2026-04-30 19:35 29.99296 -90.25771 9 ft 2 kts 49°
2026-04-30 19:36 29.99286 -90.25784 9 ft 2 kts 49°
2026-04-30 19:36 29.99276 -90.25797 9 ft 2 kts 49°
2026-04-30 19:36 29.99271 -90.25829 9 ft 2 kts 115°
2026-04-30 19:37 29.99277 -90.25840 9 ft 0 kts 138°
2026-04-30 19:37 29.99282 -90.25845 9 ft 1 kts 142°
2026-04-30 19:37 29.99283 -90.25845 9 ft 0 kts 142°
2026-04-30 19:40 29.99271 -90.25834 9 ft 2 kts 138°
2026-04-30 19:40 29.99262 -90.25825 9 ft 0 kts 132°
2026-04-30 19:40 29.99252 -90.25808 9 ft 4 kts 123°
2026-04-30 19:40 29.99233 -90.25767 9 ft 7 kts 114°
2026-04-30 19:41 29.99219 -90.25699 9 ft 10 kts 95°
2026-04-30 19:41 29.99214 -90.25604 9 ft 12 kts 94°
2026-04-30 19:41 29.99208 -90.25506 9 ft 12 kts 94°
2026-04-30 19:41 29.99201 -90.25400 9 ft 14 kts 94°
2026-04-30 19:42 29.99194 -90.25285 9 ft 14 kts 94°
2026-04-30 19:42 29.99187 -90.25169 9 ft 14 kts 94°
2026-04-30 19:42 29.99198 -90.25067 9 ft 12 kts 54°
2026-04-30 19:42 29.99276 -90.25022 9 ft 12 kts 16°
2026-04-30 19:43 29.99360 -90.24995 9 ft 12 kts 15°
2026-04-30 19:43 29.99449 -90.24966 9 ft 13 kts 15°
2026-04-30 19:43 29.99541 -90.24938 9 ft 14 kts 15°
2026-04-30 19:44 29.99736 -90.24875 9 ft 14 kts 15°
2026-04-30 19:44 29.99834 -90.24844 9 ft 15 kts 16°
2026-04-30 19:44 29.99936 -90.24811 9 ft 14 kts 14°
2026-04-30 19:44 30.00034 -90.24780 9 ft 14 kts 16°
2026-04-30 19:45 30.00131 -90.24751 9 ft 14 kts 14°
2026-04-30 19:45 30.00229 -90.24720 9 ft 14 kts 16°
2026-04-30 19:45 30.00303 -90.24679 9 ft 8 kts 53°
2026-04-30 19:45 30.00309 -90.24665 9 ft 0 kts 68°
2026-04-30 19:47 30.00311 -90.24660 9 ft 3 kts 74°
2026-04-30 19:47 30.00307 -90.24599 9 ft 9 kts 112°
2026-04-30 19:48 30.00254 -90.24567 9 ft 9 kts 191°
2026-04-30 19:48 30.00009 -90.24641 9 ft 77 kts 194°
2026-04-30 19:48 29.99234 -90.24889 10 ft 151 kts 195°
2026-04-30 19:48 29.98083 -90.25274 385 ft 182 kts 194°
2026-04-30 19:49 29.96890 -90.25745 1221 ft 188 kts 196°
2026-04-30 19:49 29.94134 -90.26768 2175 ft 233 kts 196°
2026-04-30 19:49 29.92558 -90.27325 3033 ft 243 kts 196°
2026-04-30 19:50 29.90901 -90.27896 3749 ft 260 kts 197°
2026-04-30 19:50 29.89293 -90.28790 4732 ft 266 kts 221°
2026-04-30 19:50 29.88313 -90.30526 5873 ft 265 kts 253°
2026-04-30 19:50 29.88281 -90.32597 6907 ft 269 kts 284°
2026-04-30 19:51 29.89183 -90.34478 7831 ft 277 kts 310°
2026-04-30 19:51 29.90505 -90.36047 8888 ft 275 kts 307°
2026-04-30 19:51 29.91566 -90.37867 9775 ft 277 kts 300°
2026-04-30 19:51 29.92603 -90.39730 10703 ft 279 kts 303°
2026-04-30 19:52 29.93783 -90.41608 11064 ft 301 kts 306°
2026-04-30 19:52 29.95083 -90.43591 11417 ft 321 kts 306°
2026-04-30 19:52 29.96430 -90.45677 12026 ft 330 kts 305°
2026-04-30 19:52 29.97800 -90.47844 12735 ft 336 kts 304°
2026-04-30 19:53 29.99169 -90.50004 13552 ft 337 kts 304°
2026-04-30 19:53 30.00551 -90.52152 14348 ft 338 kts 304°
2026-04-30 19:53 30.01946 -90.54327 15098 ft 340 kts 303°
2026-04-30 19:53 30.03373 -90.56525 15817 ft 343 kts 304°
2026-04-30 19:54 30.04803 -90.58693 16578 ft 343 kts 303°
2026-04-30 19:54 30.06237 -90.60889 17260 ft 344 kts 303°
2026-04-30 19:54 30.07662 -90.63097 17904 ft 346 kts 302°
2026-04-30 19:54 30.09098 -90.65331 18516 ft 349 kts 302°
2026-04-30 19:55 30.10560 -90.67593 19083 ft 353 kts 302°
2026-04-30 19:55 30.12017 -90.69844 19635 ft 356 kts 302°
2026-04-30 19:55 30.13497 -90.72138 20140 ft 361 kts 302°
2026-04-30 19:55 30.14998 -90.74470 20716 ft 363 kts 303°
2026-04-30 19:56 30.16524 -90.76839 21224 ft 367 kts 303°
2026-04-30 19:56 30.18039 -90.79192 21730 ft 369 kts 303°
2026-04-30 19:56 30.19565 -90.81565 22230 ft 372 kts 303°
2026-04-30 19:56 30.21113 -90.83974 22662 ft 376 kts 303°
2026-04-30 19:57 30.22679 -90.86411 23137 ft 378 kts 303°
2026-04-30 19:57 30.24230 -90.88827 23582 ft 380 kts 303°
2026-04-30 19:57 30.25811 -90.91289 23991 ft 383 kts 303°
2026-04-30 19:57 30.27408 -90.93780 24458 ft 384 kts 303°
2026-04-30 19:58 30.28993 -90.96252 24841 ft 387 kts 303°
2026-04-30 19:58 30.30599 -90.98758 25273 ft 389 kts 303°
2026-04-30 19:58 30.32204 -91.01264 25684 ft 390 kts 303°
2026-04-30 19:58 30.33817 -91.03787 26045 ft 393 kts 302°
2026-04-30 19:59 30.35437 -91.06323 26440 ft 394 kts 302°
2026-04-30 19:59 30.37060 -91.08862 26826 ft 395 kts 302°
2026-04-30 19:59 30.40342 -91.14005 27510 ft 398 kts 302°
2026-04-30 20:00 30.41974 -91.16565 27834 ft 400 kts 302°
2026-04-30 20:00 30.43622 -91.19152 28136 ft 402 kts 302°
2026-04-30 20:00 30.45279 -91.21755 28460 ft 403 kts 302°
2026-04-30 20:00 30.46934 -91.24355 28742 ft 405 kts 302°
2026-04-30 20:01 30.50295 -91.29641 29333 ft 407 kts 302°
2026-04-30 20:01 30.51973 -91.32283 29586 ft 409 kts 302°
2026-04-30 20:01 30.53649 -91.34926 29827 ft 411 kts 302°
2026-04-30 20:02 30.57031 -91.40260 30304 ft 414 kts 302°
2026-04-30 20:02 30.58738 -91.42954 30597 ft 414 kts 302°
2026-04-30 20:03 30.62160 -91.48363 31078 ft 415 kts 302°
2026-04-30 20:03 30.63842 -91.51017 31501 ft 411 kts 302°
2026-04-30 20:03 30.65524 -91.53674 31773 ft 411 kts 302°
2026-04-30 20:03 30.67204 -91.56336 32085 ft 410 kts 302°
2026-04-30 20:04 30.68889 -91.59010 32432 ft 407 kts 302°
2026-04-30 20:04 30.70560 -91.61664 32729 ft 406 kts 302°
2026-04-30 20:04 30.72203 -91.64274 33018 ft 405 kts 302°
2026-04-30 20:05 30.75506 -91.69518 33593 ft 402 kts 302°
2026-04-30 20:05 30.77151 -91.72132 33899 ft 399 kts 302°
2026-04-30 20:05 30.80415 -91.77330 34344 ft 398 kts 302°
2026-04-30 20:06 30.82043 -91.79925 34596 ft 397 kts 301°
2026-04-30 20:06 30.83669 -91.82517 34835 ft 396 kts 301°
2026-04-30 20:06 30.85293 -91.85102 35044 ft 395 kts 301°
2026-04-30 20:06 30.86894 -91.87654 35282 ft 394 kts 301°
2026-04-30 20:07 30.88487 -91.90202 35513 ft 392 kts 301°
2026-04-30 20:07 30.90093 -91.92775 35732 ft 391 kts 301°
2026-04-30 20:07 30.93278 -91.97875 35929 ft 392 kts 301°
2026-04-30 20:08 30.94891 -92.00459 35929 ft 390 kts 301°
2026-04-30 20:08 30.98052 -92.05520 35928 ft 390 kts 300°
2026-04-30 20:09 31.01241 -92.10644 35928 ft 389 kts 300°
2026-04-30 20:09 31.05984 -92.18273 35930 ft 388 kts 300°
2026-04-30 20:10 31.10693 -92.25863 35938 ft 387 kts 300°
2026-04-30 20:11 31.15409 -92.33475 35957 ft 386 kts 300°
2026-04-30 20:11 31.18524 -92.38510 35965 ft 385 kts 300°
2026-04-30 20:12 31.23216 -92.46109 35977 ft 384 kts 300°
2026-04-30 20:13 31.25966 -92.51366 35984 ft 378 kts 291°
2026-04-30 20:13 31.27932 -92.57030 35988 ft 377 kts 289°
2026-04-30 20:14 31.29931 -92.62692 35989 ft 377 kts 289°
2026-04-30 20:14 31.31895 -92.68398 35966 ft 378 kts 288°
2026-04-30 20:15 31.33827 -92.74040 35966 ft 377 kts 288°
2026-04-30 20:15 31.35765 -92.79726 35968 ft 377 kts 288°
2026-04-30 20:16 31.37703 -92.85433 35971 ft 378 kts 288°
2026-04-30 20:16 31.39645 -92.91161 35976 ft 378 kts 288°
2026-04-30 20:17 31.41575 -92.96873 35990 ft 378 kts 288°
2026-04-30 20:17 31.43492 -93.02557 35990 ft 377 kts 288°
2026-04-30 20:18 31.45410 -93.08254 35991 ft 376 kts 288°
2026-04-30 20:18 31.47318 -93.13927 35992 ft 376 kts 288°
2026-04-30 20:19 31.49247 -93.19661 35991 ft 378 kts 288°
2026-04-30 20:19 31.51146 -93.25344 35989 ft 378 kts 288°
2026-04-30 20:20 31.53066 -93.31087 35990 ft 377 kts 288°
2026-04-30 20:20 31.54965 -93.36777 35994 ft 376 kts 288°
2026-04-30 20:21 31.56867 -93.42489 35998 ft 376 kts 288°
2026-04-30 20:21 31.58767 -93.48199 36002 ft 375 kts 288°
2026-04-30 20:22 31.60649 -93.53874 36006 ft 375 kts 287°
2026-04-30 20:22 31.62165 -93.59677 36011 ft 372 kts 283°
2026-04-30 20:23 31.63603 -93.65505 36016 ft 372 kts 283°
2026-04-30 20:23 31.65060 -93.71288 36019 ft 372 kts 283°
2026-04-30 20:24 31.66516 -93.77110 36023 ft 371 kts 283°
2026-04-30 20:24 31.67958 -93.82869 36035 ft 370 kts 283°
2026-04-30 20:25 31.70127 -93.91546 36040 ft 369 kts 283°
2026-04-30 20:26 31.72282 -94.00191 36042 ft 369 kts 283°
2026-04-30 20:26 31.74441 -94.08875 36044 ft 369 kts 283°
2026-04-30 20:27 31.77304 -94.20434 36044 ft 369 kts 283°
2026-04-30 20:28 31.80157 -94.32002 36040 ft 371 kts 283°
2026-04-30 20:30 31.83728 -94.46555 36018 ft 372 kts 283°
2026-04-30 20:31 31.88016 -94.64122 36016 ft 373 kts 283°
2026-04-30 20:32 31.91568 -94.78757 36007 ft 375 kts 282°
2026-04-30 20:33 31.93703 -94.87616 36004 ft 375 kts 282°
2026-04-30 20:34 31.95826 -94.96443 36002 ft 376 kts 282°
2026-04-30 20:35 31.97951 -95.05302 35996 ft 375 kts 282°
2026-04-30 20:35 32.00029 -95.14142 35991 ft 376 kts 282°
2026-04-30 20:36 32.01358 -95.20026 35988 ft 367 kts 281°
2026-04-30 20:36 32.02663 -95.25715 35217 ft 358 kts 281°
2026-04-30 20:37 32.03309 -95.28556 34499 ft 361 kts 281°
2026-04-30 20:37 32.03957 -95.31433 33734 ft 367 kts 282°
2026-04-30 20:37 32.04619 -95.34338 32935 ft 370 kts 282°
2026-04-30 20:37 32.05288 -95.37237 32124 ft 370 kts 282°
2026-04-30 20:38 32.05959 -95.40162 31290 ft 376 kts 281°
2026-04-30 20:38 32.06626 -95.43139 30413 ft 384 kts 281°
2026-04-30 20:38 32.07309 -95.46186 29492 ft 385 kts 281°
2026-04-30 20:39 32.08698 -95.52323 27668 ft 389 kts 282°
2026-04-30 20:39 32.09374 -95.55303 27387 ft 372 kts 282°
2026-04-30 20:39 32.10059 -95.58176 26969 ft 362 kts 283°
2026-04-30 20:40 32.11528 -95.63765 25662 ft 352 kts 284°
2026-04-30 20:40 32.12233 -95.66521 25044 ft 353 kts 283°
2026-04-30 20:40 32.12939 -95.69292 24418 ft 353 kts 283°
2026-04-30 20:41 32.14340 -95.74727 23196 ft 343 kts 284°
2026-04-30 20:41 32.15006 -95.77413 22995 ft 339 kts 282°
2026-04-30 20:41 32.15619 -95.80081 22969 ft 346 kts 282°
2026-04-30 20:41 32.16253 -95.82844 22971 ft 348 kts 282°
2026-04-30 20:42 32.16891 -95.85583 22972 ft 348 kts 283°
2026-04-30 20:42 32.17527 -95.88316 22973 ft 347 kts 283°
2026-04-30 20:42 32.18780 -95.93719 22406 ft 334 kts 282°
2026-04-30 20:43 32.19391 -95.96362 21855 ft 337 kts 282°
2026-04-30 20:43 32.20002 -95.99009 21263 ft 334 kts 283°
2026-04-30 20:43 32.20609 -96.01630 20678 ft 329 kts 282°
2026-04-30 20:44 32.21788 -96.06737 19527 ft 319 kts 282°
2026-04-30 20:44 32.22364 -96.09242 18959 ft 314 kts 282°
2026-04-30 20:44 32.23503 -96.14199 18080 ft 314 kts 282°
2026-04-30 20:45 32.24652 -96.19206 17352 ft 313 kts 282°
2026-04-30 20:45 32.25213 -96.21654 16803 ft 308 kts 283°
2026-04-30 20:45 32.25765 -96.24064 16261 ft 308 kts 283°
2026-04-30 20:46 32.27555 -96.31300 14862 ft 296 kts 291°
2026-04-30 20:46 32.28521 -96.33379 14606 ft 288 kts 300°
2026-04-30 20:47 32.31154 -96.36906 13690 ft 283 kts 308°
2026-04-30 20:47 32.32512 -96.38522 13526 ft 273 kts 313°
2026-04-30 20:48 32.35492 -96.41491 12653 ft 278 kts 315°
2026-04-30 20:48 32.36189 -96.42191 12459 ft 276 kts 315°
2026-04-30 20:59 32.38011 -96.44048 12086 ft 270 kts 312°
2026-04-30 20:59 32.39126 -96.45745 11931 ft 260 kts 297°
2026-04-30 21:00 32.40848 -96.49503 11197 ft 264 kts 297°
2026-04-30 21:00 32.42633 -96.53280 10451 ft 262 kts 297°
2026-04-30 21:01 32.44416 -96.57086 9987 ft 256 kts 297°
2026-04-30 21:01 32.45271 -96.58905 9593 ft 258 kts 297°
2026-04-30 21:01 32.47021 -96.62653 8876 ft 259 kts 297°
2026-04-30 21:02 32.47910 -96.64513 8557 ft 262 kts 301°
2026-04-30 21:02 32.49028 -96.66251 8317 ft 268 kts 308°
2026-04-30 21:02 32.50220 -96.67950 8064 ft 268 kts 307°
2026-04-30 21:02 32.51376 -96.69680 7812 ft 268 kts 307°
2026-04-30 21:03 32.52529 -96.71407 7561 ft 267 kts 307°
2026-04-30 21:03 32.53673 -96.73121 7313 ft 268 kts 307°
2026-04-30 21:03 32.54831 -96.74863 7061 ft 268 kts 307°
2026-04-30 21:03 32.55978 -96.76595 6811 ft 268 kts 307°
2026-04-30 21:04 32.57123 -96.78323 6561 ft 268 kts 307°
2026-04-30 21:04 32.58271 -96.80057 6295 ft 268 kts 307°
2026-04-30 21:04 32.60548 -96.83496 5789 ft 261 kts 308°
2026-04-30 21:05 32.61639 -96.85147 5559 ft 254 kts 308°
2026-04-30 21:05 32.62735 -96.86806 5310 ft 254 kts 308°
2026-04-30 21:05 32.63821 -96.88448 5049 ft 251 kts 308°
2026-04-30 21:05 32.64864 -96.90029 4811 ft 239 kts 309°
2026-04-30 21:06 32.65873 -96.91560 4548 ft 232 kts 309°
2026-04-30 21:06 32.66860 -96.93053 4299 ft 232 kts 309°
2026-04-30 21:06 32.67855 -96.94562 4057 ft 224 kts 309°
2026-04-30 21:06 32.68787 -96.95976 3801 ft 212 kts 310°
2026-04-30 21:07 32.69680 -96.97340 3548 ft 209 kts 310°
2026-04-30 21:07 32.70562 -96.98690 3310 ft 208 kts 310°
2026-04-30 21:07 32.71443 -97.00022 3047 ft 200 kts 311°
2026-04-30 21:07 32.72291 -97.01298 2897 ft 195 kts 311°
2026-04-30 21:08 32.73190 -97.02513 2884 ft 197 kts 321°
2026-04-30 21:08 32.74209 -97.03616 2858 ft 196 kts 321°
2026-04-30 21:08 32.75217 -97.04701 2841 ft 195 kts 324°
2026-04-30 21:08 32.76349 -97.05566 2829 ft 192 kts 337°
2026-04-30 21:09 32.77543 -97.05881 2607 ft 169 kts 12°
2026-04-30 21:09 32.78636 -97.05640 2432 ft 153 kts 11°
2026-04-30 21:09 32.79710 -97.05563 2223 ft 155 kts
2026-04-30 21:09 32.80774 -97.05535 1994 ft 155 kts
2026-04-30 21:10 32.81866 -97.05518 1785 ft 156 kts
2026-04-30 21:10 32.82935 -97.05511 1577 ft 156 kts
2026-04-30 21:10 32.84020 -97.05492 1372 ft 154 kts
2026-04-30 21:10 32.85096 -97.05474 1189 ft 155 kts
2026-04-30 21:11 32.86148 -97.05489 953 ft 150 kts
2026-04-30 21:11 32.87187 -97.05486 745 ft 148 kts
2026-04-30 21:11 32.88208 -97.05482 580 ft 143 kts
2026-04-30 21:11 32.89027 -97.05467 591 ft 83 kts 357°
2026-04-30 21:12 32.89392 -97.05472 601 ft 32 kts 359°
2026-04-30 21:12 32.89605 -97.05475 605 ft 27 kts
2026-04-30 21:12 32.89756 -97.05470 611 ft 15 kts
2026-04-30 21:12 32.89859 -97.05441 613 ft 16 kts 19°
2026-04-30 21:13 32.89968 -97.05378 616 ft 18 kts 31°
2026-04-30 21:13 32.90076 -97.05300 618 ft 17 kts 36°
2026-04-30 21:13 32.90118 -97.05177 619 ft 16 kts 94°
2026-04-30 21:13 32.90115 -97.05035 614 ft 18 kts 89°
2026-04-30 21:14 32.90115 -97.04893 611 ft 15 kts 92°
2026-04-30 21:14 32.90116 -97.04775 609 ft 14 kts 87°
2026-04-30 21:14 32.90116 -97.04665 606 ft 12 kts 97°
2026-04-30 21:14 32.90090 -97.04562 604 ft 12 kts 117°
2026-04-30 21:15 32.90046 -97.04483 602 ft 10 kts 151°
2026-04-30 21:15 32.90001 -97.04475 602 ft 2 kts 178°
2026-04-30 21:15 32.89997 -97.04474 602 ft 0 kts 178°